DECAYED

SL-16 DEB *, 29101 (Decayed)

Orbit data source: Space-Track

SL-16 DEB *, 29101 was space debris in LEO originally from a launch on Fri, 26 Mar 1993 UTC launched from the Tyuratam Missile And Space Complex (TTMTR). Debris objects in space refer to the collection of defunct objects orbiting the Earth. Examples of debris include non-operational satellites, rocket bodies, and fragments generated from explosions, collisions, or faulty payload assembly.

Not visible in the next 10 days
Identifier
29101, 1993-016AQ
Orbit
Decayed
Country
Flag of CISCIS
Related business
Manufacturer
Unknown
Mission
Decayed spacecraft
Bus & Motor
Unknown
Mass
Unknown
Launch date (UTC)
1993-03-26 (33 years ago)
Launch vehicle
Unknown
Launch site
Tyuratam Missile And Space Complex (TTMTR)
Object type
Payload
Rocket body
Debris
Shape & HBR
Unknown shape, 0.1 m
Radar Cross Section
Small (<0.1 m²)

Expand to show TLE details & history
Last TLE update: 1 year ago

TLE from 1 year ago
0 SL-16 DEB *
1 29101U 93016AQ  25022.01381321  .03570004  00000-0  25898-1 0  9994
2 29101  70.8724 263.0494 0024178 198.1553 161.8789 15.69128259608311
Epoch: 2025-01-22T00:19Z
TLE epoch observation values (Epoch: 2025-01-22T00:19:53.461Z)
Latitude
0.00003°
Longitude
136.46488°
Altitude
379.447 km
Speed
7.674 km/s
True Right ascension
17h 32m 11s
True Declination
0° 00' 00"
Sunlit
Object was in daylight at epoch
Visualization orbit readout
Latitude
Unknown
Longitude
Unknown
Altitude
Unknown
Speed
Unknown
Apparent Right ascension
Unknown
Apparent Declination
Unknown
Sunlit
N/A
Visualization observer readout
Local Sidereal Time
20:32:12
Azimuth
Unknown
Elevation
Unknown
Doppler factor
Unknown
Orbital elements
Apogee altitude
375.471 km
Perigee altitude
342.892 km
Semi-major axis
6,737.319 km
Eccentricity
0.00242
Inclination
70.8724°
RAAN
263.0494°
Arg. of periapsis
198.1553°
True anomaly
161.96483°
Mean anomaly
161.8789°
Eccentric anomaly
161.92189°
Mean motion
3.92475 °/min
Orbital period
91.73 mins
BSTAR
0.025898
Loading maneuver chart data...
Computing Atmospheric mass density...
Loading historical data...
Loading historical data...
Loading historical data...
Loading historical data...
Loading historical data...
Loading historical data...
Loading historical data...

Documentation

Showing up to 5 results
|